Bei Facebook empfehlenBei Twitter postenGoogle plusPinterest

Das Wetter im Erzgebirge am 12.03.2016

Wetter und Klima am 12.03.2016 Holzhau im Erzgebirge (630m ü.NN)
Letzte gemessene Temperatur und Uhrzeit der Messung23:45:00 Uhr-0.40 °C
Temperatur (Maximum / Höchstwert) und Uhrzeit der Messung13:15:00 Uhr1.40 °C
Temperatur (Minimum / Tiefstwert) und Uhrzeit der Messung23:45:00-0.40 °C
Errechneter Absolutwert der Temperaturschwankungen zwischen Tmin und Tmax des Tages1.80 K
Errechnete Tagesmitteltemperatur0.02604 °C
Gesamt - Niederschlag des Tages (in flüssiger Form)0.00 Liter / m²
Luftdruck (Maximum / Höchstwert) und Zeitpunkt der Messung23:30:00 Uhr1024.90 hPa
Luftdruck (Minimum / Tiefstwert) und Zeitpunkt der Messung04:00:00 Uhr1021.90 hPa
Errechneter Absolutwert der Luftdruckschwankungen des Tages3.00 hPa
Höchste gemessene Windgeschwindigkeit und Uhrzeit der Messung15:30:00 Uhr9.36 km/h
Errechnete Windhäufigkeit in Relation zu den Messwerten des Tages9.37500 %
Niedrigste Windkühle (Windchill) und Zeitpunkt der Messung15:30:00 Uhr-2.70 °C
Taupunkt (Maximum / Höchstwert) und Uhrzeit der Messung13:15:00 Uhr0.40 °C
Taupunkt (Minimum / Tiefstwert) und Uhrzeit der Messung04:30:00-1.80 °C
Anzahl der automatisch eingelesenen Messwerte 96

Detaillierte Wetter- und Klima- Messwerte für den 12.03.2016 in Holzhau im Erzgebirge (630m ü.NN)
ZeitTemperaturLuftdruckRel. LuftfeuchteWindWindrichtungWindchillTaupunktNiederschlag l/m²
23:45:00-0.40 °C1024.70 hPa93.00 %-1.50 °C 
23:30:00-0.40 °C1024.90 hPa93.00 %-1.50 °C 
23:15:00-0.40 °C1024.80 hPa93.00 %-1.50 °C 
23:00:00-0.40 °C1024.80 hPa93.00 %-1.50 °C 
22:45:00-0.40 °C1024.80 hPa93.00 %-1.50 °C 
22:30:00-0.40 °C1024.90 hPa93.00 %3.24 km/hSSW-0.40 °C-1.50 °C 
22:15:00-0.40 °C1024.70 hPa93.00 %-1.50 °C 
22:00:00-0.40 °C1024.60 hPa93.00 %2.88 km/hSW-0.40 °C-1.50 °C 
21:45:00-0.40 °C1024.60 hPa93.00 %-1.50 °C 
21:30:00-0.40 °C1024.60 hPa92.00 %-1.70 °C 
21:15:00-0.40 °C1024.60 hPa92.00 %-1.70 °C 
21:00:00-0.30 °C1024.40 hPa92.00 %-1.60 °C 
20:45:00-0.30 °C1024.40 hPa92.00 %-1.60 °C 
20:30:00-0.40 °C1024.40 hPa92.00 %-1.70 °C 
20:15:00-0.30 °C1024.40 hPa92.00 %-1.60 °C 
20:00:00-0.20 °C1024.30 hPa92.00 %-1.50 °C 
19:45:00-0.20 °C1024.20 hPa92.00 %-1.50 °C 
19:30:00-0.20 °C1024.10 hPa92.00 %-1.50 °C 
19:15:00-0.20 °C1024.00 hPa92.00 %-1.50 °C 
19:00:00-0.10 °C1024.00 hPa92.00 %-1.40 °C 
18:45:00-0.10 °C1023.80 hPa92.00 %3.96 km/hSW-0.10 °C-1.40 °C 
18:30:00-0.10 °C1023.80 hPa92.00 %-1.40 °C 
18:15:00-0.10 °C1023.70 hPa92.00 %-1.40 °C 
18:00:00-0.10 °C1023.70 hPa92.00 %-1.40 °C 
17:45:00-0.10 °C1023.50 hPa92.00 %-1.40 °C 
17:30:00-0.10 °C1023.40 hPa92.00 %-1.40 °C 
17:15:000.10 °C1023.40 hPa92.00 %-1.00 °C 
17:00:000.10 °C1023.20 hPa92.00 %-1.00 °C 
16:45:000.10 °C1023.20 hPa92.00 %-1.00 °C 
16:30:000.20 °C1023.10 hPa92.00 %-0.90 °C 
16:15:000.10 °C1023.20 hPa92.00 %-1.00 °C 
16:00:000.10 °C1023.20 hPa92.00 %-1.00 °C 
15:45:000.20 °C1023.10 hPa92.00 %-0.90 °C 
15:30:000.40 °C1022.90 hPa93.00 %9.36 km/hSW-2.70 °C-0.60 °C 
15:15:000.30 °C1023.00 hPa92.00 %-0.80 °C 
15:00:000.30 °C1023.10 hPa92.00 %-0.80 °C 
14:45:000.40 °C1022.90 hPa93.00 %-0.60 °C 
14:30:000.50 °C1022.90 hPa93.00 %-0.50 °C 
14:15:000.70 °C1023.10 hPa93.00 %-0.30 °C 
14:00:000.90 °C1023.00 hPa93.00 %-0.10 °C 
13:45:001.00 °C1023.10 hPa93.00 %0.00 °C 
13:30:001.10 °C1023.10 hPa93.00 %6.84 km/hOSO-1.10 °C0.10 °C 
13:15:001.40 °C1023.20 hPa93.00 %0.40 °C 
13:00:001.30 °C1023.20 hPa93.00 %1.80 km/hNNO1.30 °C0.30 °C 
12:45:000.90 °C1023.30 hPa93.00 %2.52 km/hSO0.90 °C-0.10 °C 
12:30:001.10 °C1023.30 hPa93.00 %2.16 km/hSSO1.10 °C0.10 °C 
12:15:001.10 °C1023.40 hPa93.00 %0.10 °C 
12:00:001.00 °C1023.50 hPa94.00 %0.10 °C 
11:45:000.90 °C1023.50 hPa94.00 %0.00 °C 
11:30:000.70 °C1023.70 hPa94.00 %-0.20 °C 
11:15:000.50 °C1023.80 hPa94.00 %-0.40 °C 
11:00:000.40 °C1023.80 hPa94.00 %-0.50 °C 
10:45:000.30 °C1023.80 hPa94.00 %-0.50 °C 
10:30:000.40 °C1023.70 hPa94.00 %-0.50 °C 
10:15:000.50 °C1023.30 hPa94.00 %4.68 km/hSSO0.50 °C-0.40 °C 
10:00:000.40 °C1023.30 hPa94.00 %-0.50 °C 
09:45:000.30 °C1023.20 hPa94.00 %-0.50 °C 
09:30:000.10 °C1023.10 hPa94.00 %-0.70 °C 
09:15:000.10 °C1023.00 hPa93.00 %-0.90 °C 
09:00:000.10 °C1022.90 hPa93.00 %-0.90 °C 
08:45:00-0.10 °C1022.80 hPa93.00 %-1.20 °C 
08:30:00-0.10 °C1022.70 hPa93.00 %-1.20 °C 
08:15:00-0.10 °C1022.80 hPa93.00 %-1.20 °C 
08:00:00-0.10 °C1022.70 hPa93.00 %-1.20 °C 
07:45:00-0.20 °C1022.70 hPa93.00 %-1.30 °C 
07:30:00-0.20 °C1022.60 hPa93.00 %-1.30 °C 
07:15:00-0.20 °C1022.70 hPa93.00 %-1.30 °C 
07:00:00-0.20 °C1022.60 hPa93.00 %-1.30 °C 
06:45:00-0.40 °C1022.50 hPa92.00 %-1.70 °C 
06:30:00-0.40 °C1022.30 hPa92.00 %-1.70 °C 
06:15:00-0.40 °C1022.40 hPa92.00 %-1.70 °C 
06:00:00-0.40 °C1022.40 hPa92.00 %-1.70 °C 
05:45:00-0.40 °C1022.30 hPa92.00 %-1.70 °C 
05:30:00-0.40 °C1022.20 hPa92.00 %-1.70 °C 
05:15:00-0.40 °C1022.20 hPa92.00 %-1.70 °C 
05:00:00-0.40 °C1022.10 hPa92.00 %-1.70 °C 
04:45:00-0.40 °C1022.10 hPa92.00 %-1.70 °C 
04:30:00-0.40 °C1022.10 hPa91.00 %-1.80 °C 
04:15:00-0.40 °C1022.10 hPa91.00 %-1.80 °C 
04:00:00-0.20 °C1021.90 hPa91.00 %-1.60 °C 
03:45:00-0.20 °C1022.00 hPa91.00 %-1.60 °C 
03:30:00-0.20 °C1021.90 hPa91.00 %-1.60 °C 
03:15:00-0.20 °C1021.90 hPa90.00 %-1.80 °C 
03:00:00-0.20 °C1021.90 hPa90.00 %-1.80 °C 
02:45:00-0.20 °C1022.00 hPa90.00 %-1.80 °C 
02:30:00-0.20 °C1022.00 hPa90.00 %-1.80 °C 
02:15:00-0.20 °C1022.20 hPa90.00 %-1.80 °C 
02:00:00-0.20 °C1022.20 hPa90.00 %-1.80 °C 
01:45:00-0.20 °C1022.40 hPa90.00 %-1.80 °C 
01:30:00-0.20 °C1022.30 hPa90.00 %-1.80 °C 
01:15:00-0.20 °C1022.40 hPa90.00 %-1.80 °C 
01:00:00-0.10 °C1022.40 hPa90.00 %-1.70 °C 
00:45:00-0.10 °C1022.40 hPa90.00 %-1.70 °C 
00:30:00-0.10 °C1022.50 hPa90.00 %-1.70 °C 
00:15:00-0.10 °C1022.70 hPa90.00 %-1.70 °C 
00:00:000.10 °C1022.80 hPa90.00 %-1.30 °C 

Permanenter Link zu dieser Seite: Wetter im Erzgebirge am 12.03.2016
Performance-Info: Die Erstellung der Seite / Statistik(en) / Tabelle(n) erforderte 5 Datenbankserver-Abfrage(n) und dauerte 102 Millisekunden. (Dieser Messwert ist von der Gesamt-Auslastung des Servers abhängig.)
Erzgebirge - Wetter | Erzgebirge - Wetter (Mobilgeräte) | Komplette Klimadatenbank